Regional Weather Roundup
Issued by NWS

Home | Current Version | Previous Version | Graphics & Text | Print | Product List | Glossary On
Versions: 1 2 3 4 5 6 7 8 9 10 11 12 13 14 15 16 17 18 19 20 21 22 23 24 25 26 27 28 29 30 31 32 33 34 35 36 37 38 39 40 41 42 43 44 45 46 47 48 49 50
000
ASUS43 KFSD 241302
RWRSD

WEATHER ROUNDUP FOR SOUTH DAKOTA
NATIONAL WEATHER SERVICE SIOUX FALLS SD
800 AM CDT THU APR 24 2014

NOTE: "FAIR" INDICATES FEW OR NO CLOUDS BELOW 12,000 FEET WITH NO
SIGNIFICANT WEATHER AND/OR OBSTRUCTIONS TO VISIBILITY.


SDZ001>005-009-010-012>017-241400-
NORTHWEST AND NORTH CENTRAL SOUTH DAKOTA

CITY           SKY/WX    TMP DP  RH WIND       PRES   REMARKS
BUFFALO          N/A     42  29  59 W18       29.76R
FAITH            N/A     42  24  49 W15       29.81R
MOBRIDGE       SUNNY     41  30  65 NW10      29.75R
$$

SDZ012>016-024>037-041>051-057-063-072>074-241400-
SOUTHWEST AND SOUTH CENTRAL SOUTH DAKOTA

CITY           SKY/WX    TMP DP  RH WIND       PRES   REMARKS
RAPID CTY ARPT SUNNY     40  22  48 W7        29.85S
PIERRE         MOSUNNY   45  31  58 NW12      29.78R
CUSTER         SUNNY     35  16  45 W7        29.87S WCI  29
PHILIP         SUNNY     39  28  64 W8        29.83R
PINE RIDGE     SUNNY     37  32  82 S6        29.90R
WINNER         FAIR      45  33  63 W15       29.80R
$$

SDZ004>011-016>023-039-040-241400-
NORTHEAST SOUTH DAKOTA

CITY           SKY/WX    TMP DP  RH WIND       PRES   REMARKS
ABERDEEN       CLOUDY    38  38 100 NW5       29.74S
WATERTOWN      CLOUDY    40  39  97 CALM      29.72R FOG
SISSETON         N/A     39  39 100 SE3       29.74R
$$

SDZ017-020-022-023-036>040-048>070-241400-
SOUTHEAST SOUTH DAKOTA

CITY           SKY/WX    TMP DP  RH WIND       PRES   REMARKS
SIOUX FALLS    CLOUDY    46  45  96 N7        29.68R FOG
HURON          CLOUDY    43  41  93 N5        29.75R FOG
CHAMBERLAIN      N/A     43  35  73 W8        29.79R
MITCHELL       CLOUDY    45  43  93 NW7       29.76R
YANKTON        CLOUDY    46  45  93 NW16      29.73R
$$

ABBREVIATIONS USED IN REMARKS
   TC - TEMPERATURE IN CELSIUS
  WCI - WIND CHILL INDEX
   HX - HEAT INDEX
  VSB - VISIBILITY




USA.gov is the U.S. government's official web portal to all federal, state and local government web resources and services.